SL-8 DEB, 1590

Orbit data source: Space-Track

SL-8 DEB, 1590 is space debris in LEO originally from a launch on Sat, 18 Sep 1965 UTC launched from the Tyuratam Missile And Space Complex (TTMTR). Debris objects in space refer to the collection of defunct objects orbiting the Earth. Examples of debris include non-operational satellites, rocket bodies, and fragments generated from explosions, collisions, or faulty payload assembly.

Loading next visibility...
Identifier
1590, 1965-073G
Orbit
LEO
Last TLE update
3 days ago
Origin
Manufacturer
Unknown
Mission
Spacecraft
Bus & Motor
Unknown
Mass
Unknown
Launch date (UTC)
1965-09-18 (60 years ago)
Launch vehicle
Unknown
Launch site
Tyuratam Missile And Space Complex (TTMTR)
Object type
Payload
Rocket body
Debris
Shape & HBR
Unknown
Radar Cross Section
Small (<0.1 m²)

Expand to show TLE details & history

TLE from 3 days ago
0 SL-8 DEB
1 01590U 65073G   25179.41806922  .00000181  00000-0  17211-2 0  9996
2 01590  56.0887 329.6480 0174107 282.9301 111.7553 12.49676684714118
Epoch: 2025-06-28T10:02Z
TLE epoch observation values (Epoch: 2025-06-28T10:02:01.18Z)
Latitude
29.67311°
Longitude
-75.20791°
Altitude
1,520.399 km
Speed
7.085 km/s
True Right ascension
23h 28m 12s
True Declination
29° 32' 23"
Sunlit
Object was in daylight at epoch
Visualization orbit readout
Latitude
24.2036°
Longitude
-88.52207°
Altitude
1,494.07 km
Speed
7.107 km/s
Apparent Right ascension
19h 57m 31s
Apparent Declination
-12° 53' 57"
Sunlit
Object is in daylight
Visualization observer readout
Local Sidereal Time
00:31:13
Azimuth
246.122° WSW
Elevation
7.569°
Doppler factor
1
Orbital elements
Apogee altitude
1,602.233 km
Perigee altitude
1,329.1 km
Semi-major axis
7,843.803 km
Eccentricity
0.01741
Inclination
56.0887°
RAAN
329.648°
Arg. of periapsis
282.9301°
True anomaly
Unknown
Mean anomaly
111.7553°
Eccentric anomaly
Unknown
Mean motion
3.1243 °/min
Orbital period
115.23 mins
BSTAR
0.0017211
Loading maneuver chart data...
Loading SW <> Apogee altitude chart data...
Loading historical data...
Loading historical data...
Loading historical data...
Loading historical data...
Loading historical data...
Loading historical data...
Loading historical data...

SL-8 DEB Visibility forecast

Observer location: undefined°, undefined°

Span
Click to sort rows by Start time (UTC) header in descending order
Start Az.
Max El. time (UTC)
Max El. Az.
Max El.
End time (UTC)
End Az.
18 mins2025-07-01 12:53:22.095Z247.818° W2025-07-01 13:02:22.095Z332.506° NNW39.845°2025-07-01 13:11:22.095Z42.801° NE
14 mins2025-07-01 14:58:22.095Z299.315° NW2025-07-01 15:04:22.095Z347.676° N27.246°2025-07-01 15:12:22.095Z48.465° ENE
15 mins2025-07-01 17:01:22.095Z322.06° NNW2025-07-01 17:08:22.095Z22.285° NNE30.472°2025-07-01 17:16:22.095Z82.209° E
17 mins2025-07-01 19:02:22.095Z316.842° NNW2025-07-01 19:10:22.095Z66.457° ENE44.484°2025-07-01 19:19:22.095Z130.762° SE
14 mins2025-07-01 21:03:22.095Z292.918° NW2025-07-01 21:09:22.095Z247.444° WSW26.912°2025-07-01 21:17:22.095Z186.665° SSW
13 mins2025-07-02 09:56:22.095Z167.024° S2025-07-02 10:02:22.095Z118.437° SE25.76°2025-07-02 10:09:22.095Z65.106° ENE
17 mins2025-07-02 11:54:22.095Z229.377° WSW2025-07-02 12:02:22.095Z337.186° NNW44.592°2025-07-02 12:11:22.095Z44.592° NE
|